Helicity
173 232 243 228 192 144 120 100 88 67 82 78 100 96 88 85 76 71 69 68 69 75 76 64 67 58 52 40 39 4 13 26 52 15 90 105 165 225 195 164 204 231 246
235 274 286 250 201 160 119 102 81 85 93 100 102 96 83 82 82 72 81 82 83 88 74 68 63 57 31 36 34 19 -10 -12 32 14 19 77 70 158 156 195 201 234 160
231 309 298 245 200 160 132 103 93 95 98 107 122 120 124 108 99 93 90 96 98 92 85 74 57 53 41 34 22 15 -2 -16 -2 10 14 54 76 106 88 112 121 147 143
200 300 313 244 192 149 140 120 113 112 110 114 120 101 88 112 95 100 103 116 123 117 112 100 94 83 66 71 45 38 19 8 8 7 49 51 45 72 91 81 51 34 71
162 256 260 228 178 189 162 150 143 137 135 143 142 127 134 132 125 145 160 134 129 128 119 117 107 93 79 61 49 43 46 35 22 19 35 59 83 94 76 76 88 35 66
79 172 198 212 187 198 203 187 172 167 160 165 162 145 143 153 176 197 196 163 130 123 124 115 105 93 88 70 61 57 56 57 53 53 60 62 72 79 93 83 80 106 90
80 127 196 213 205 206 204 193 193 190 172 177 184 168 177 187 198 198 227 185 156 134 136 121 110 96 88 84 91 86 78 75 74 86 88 104 94 89 106 99 96 83 89
68 97 166 195 210 191 184 191 192 196 180 190 195 189 190 193 193 197 243 240 201 184 165 140 126 116 99 87 92 88 83 97 93 100 112 128 128 121 125 115 121 111 111
81 70 143 141 143 153 147 155 185 196 193 209 222 214 215 218 211 230 267 262 241 219 185 146 134 120 103 95 90 86 79 97 108 123 145 147 146 156 139 134 109 118 128
228 304 325 305 249 162 135 134 151 172 194 224 229 223 248 265 276 283 291 267 249 225 169 142 121 113 106 106 110 107 92 118 140 149 168 180 181 207 181 171 170 163 131
361 356 352 335 330 351 274 204 172 174 195 219 221 233 246 275 283 234 234 237 219 178 143 118 112 104 107 102 106 119 155 168 167 164 174 207 200 194 203 184 185 181 165
424 391 362 332 305 288 298 310 299 253 211 221 250 272 268 206 187 194 213 191 192 169 169 160 139 119 90 88 105 119 126 117 116 142 166 188 217 215 234 210 188 188 180
363 287 281 257 211 180 194 218 247 282 298 317 270 224 171 175 181 178 169 138 131 146 147 147 133 109 84 88 100 98 104 98 119 144 149 164 188 195 218 197 195 185 190
228 200 197 202 159 132 175 228 253 255 252 222 183 153 143 180 167 113 107 120 131 125 120 111 99 96 86 76 78 92 111 125 143 150 141 152 151 160 172 170 162 170 172
266 248 186 133 134 179 172 185 185 183 181 183 175 147 124 119 120 133 141 148 135 117 102 97 93 95 100 91 89 102 122 143 151 148 130 118 108 89 98 127 124 134 145
244 211 149 92 167 202 183 176 174 158 145 150 144 127 121 145 122 133 148 143 134 122 106 94 84 88 104 82 80 93 127 135 140 144 138 111 72 80 70 65 51 73 110
177 147 133 197 189 169 169 160 151 132 142 135 131 129 146 161 171 163 152 143 139 135 129 125 123 109 103 84 86 74 145 144 141 139 127 113 94 74 85 68 78 88 50
96 150 166 160 148 139 142 124 121 133 138 135 135 135 137 136 134 136 129 122 122 120 122 122 120 126 123 91 87 87 143 152 133 122 106 107 97 95 88 90 96 100 109
152 122 107 111 119 116 105 110 127 138 137 136 137 142 142 142 134 129 127 129 136 138 138 137 135 134 133 97 90 97 151 147 125 110 98 102 106 68 51 86 102 106 105
108 101 93 86 94 96 95 118 119 120 130 133 135 137 145 149 153 152 152 147 151 150 147 141 138 116 128 95 83 93 142 135 119 116 90 76 83 42 44 89 119 114 105
85 90 86 84 93 109 125 121 128 137 134 132 141 146 152 155 149 152 159 159 154 153 154 142 134 128 118 111 66 61 106 119 111 108 97 95 43 42 25 36 116 94 101
88 104 111 105 101 116 126 112 106 116 130 139 137 140 142 139 136 138 138 139 148 147 141 132 121 109 106 71 60 55 58 62 104 112 92 90 52 35 32 66 57 36 46
95 98 94 102 106 107 115 129 117 107 114 115 112 112 112 112 114 121 116 120 128 145 138 128 116 92 91 94 58 60 54 40 66 109 71 38 33 19 56 66 61 55 152
106 108 107 93 75 81 88 91 95 112 127 125 121 118 126 116 121 124 121 119 130 130 119 114 105 98 82 82 92 97 91 66 74 96 85 52 31 36 101 86 89 123 131
81 76 77 84 91 86 92 98 101 125 135 137 135 135 128 132 125 117 121 123 112 110 118 118 122 123 120 103 51 64 93 89 58 56 69 64 48 141 142 134 114 114 96
84 77 79 86 91 94 100 98 113 129 145 134 133 135 132 127 118 119 108 68 60 48 42 34 50 73 49 26 35 26 20 14 18 68 103 89 68 90 129 129 114 119 80
Wind_Speed
7 7 7 10 12 15 18 19 22 25 27 30 32 31 33 35 38 41 44 44 44 45 46 46 47 48 49 50 51 51 52 54 57 51 50 41 39 41 41 41 43 44 45
13 9 8 9 9 10 14 16 19 22 25 28 30 31 29 32 33 38 42 43 45 45 46 46 47 47 47 50 52 53 53 53 55 52 48 50 46 46 42 41 41 41 41
15 11 9 9 10 10 12 13 16 19 24 26 28 29 30 30 33 38 40 43 44 45 46 46 46 47 49 51 52 53 53 54 52 50 48 51 51 57 45 44 44 44 44
18 13 11 10 10 12 13 14 14 18 23 26 27 29 30 32 33 34 36 41 43 44 45 46 47 49 51 52 53 53 53 52 55 50 50 48 50 54 58 48 48 47 47
22 15 12 11 12 12 12 12 14 20 24 27 29 29 30 32 31 33 35 37 41 44 45 46 47 49 51 53 54 55 55 54 52 52 52 51 50 49 55 64 58 52 50
27 21 16 15 14 14 14 12 16 22 25 28 30 29 29 31 33 34 35 37 38 40 43 46 47 49 51 53 54 55 55 55 53 52 51 51 55 57 57 59 62 63 51
27 30 25 19 18 18 16 14 19 25 27 28 30 31 31 33 34 36 37 38 39 39 44 46 49 50 50 52 54 54 55 55 55 55 55 53 51 51 54 60 64 64 59
31 33 28 22 20 21 17 17 21 28 29 30 30 34 34 36 37 39 39 39 40 42 43 45 48 50 51 52 54 54 54 55 55 57 58 57 55 54 53 57 62 69 67
37 37 32 27 24 23 22 21 25 29 31 31 32 35 38 38 41 42 43 42 42 44 46 47 49 51 53 54 55 56 54 56 55 54 55 56 57 58 56 55 56 64 71
44 42 41 42 41 35 31 26 30 33 34 34 33 36 39 42 44 47 47 47 49 49 50 52 53 55 55 56 58 58 54 55 56 54 54 54 55 57 56 56 57 59 65
42 42 43 45 46 47 42 38 37 37 36 36 36 38 42 46 49 52 51 50 50 50 52 53 55 58 59 59 60 60 57 56 57 57 57 57 55 55 55 54 55 60 60
46 46 47 50 53 53 51 49 45 43 41 40 41 43 47 55 54 53 50 50 52 52 54 57 59 61 61 60 61 63 58 59 60 61 61 61 59 61 62 58 60 60 59
49 49 53 57 58 57 55 55 52 50 48 48 52 58 57 52 52 52 50 54 53 53 57 59 60 59 61 62 62 62 62 61 59 59 60 60 60 62 61 58 58 57 58
48 52 58 60 60 60 59 58 58 56 58 56 54 54 53 51 52 52 49 50 53 57 59 60 59 61 62 62 64 63 64 62 61 62 57 56 59 59 55 55 57 57 60
54 56 59 62 63 63 64 62 61 59 58 57 56 55 55 53 52 54 53 56 58 60 61 61 61 61 62 62 63 61 59 61 61 59 56 54 53 52 51 52 54 54 56
56 60 62 64 65 65 64 64 65 63 61 60 59 57 56 55 55 52 56 59 60 62 66 64 62 64 61 61 59 58 60 60 61 60 57 52 53 51 52 52 51 50 52
63 66 66 66 66 67 67 69 68 66 65 64 62 60 58 57 58 59 60 63 66 68 71 67 66 66 65 62 61 61 60 58 59 59 57 53 50 50 51 50 53 56 52
67 69 68 69 69 68 70 70 70 70 70 68 67 66 65 64 62 63 65 67 67 68 69 69 68 68 65 63 63 63 60 56 57 58 58 57 52 51 51 50 53 51 51
69 69 70 72 71 71 70 71 73 73 73 72 70 67 66 67 68 69 70 69 70 70 71 69 69 68 67 64 63 63 60 59 62 62 62 58 50 49 53 51 46 49 50
69 71 72 72 72 75 74 75 77 76 76 74 73 71 72 73 73 72 72 71 69 71 70 70 68 68 68 65 64 63 62 62 60 59 62 62 48 48 51 49 43 48 45
73 74 77 79 79 82 80 80 79 80 77 74 76 75 75 76 75 74 72 72 72 73 74 74 72 70 67 66 66 64 62 60 58 58 56 55 54 54 51 46 40 41 40
79 79 80 80 81 82 81 81 83 79 78 79 79 78 78 77 76 75 74 73 73 76 76 77 76 70 66 65 64 63 61 58 56 54 53 53 53 51 49 44 45 40 37
82 80 81 84 83 80 78 85 82 81 80 79 78 77 76 74 72 73 74 72 69 69 71 70 71 70 64 62 63 63 62 56 57 52 52 52 52 51 47 43 43 42 30
84 80 85 87 84 75 78 78 79 77 78 80 79 77 75 75 71 68 69 69 68 68 67 67 68 66 64 60 59 59 60 63 61 58 54 56 52 52 38 37 36 31 29
81 80 82 80 81 80 79 76 78 77 78 77 76 75 73 73 72 68 66 66 63 60 61 59 59 59 58 55 52 54 54 54 55 58 58 60 57 41 38 37 34 33 35
78 79 78 80 81 79 79 79 75 73 76 78 76 73 73 71 70 70 72 65 66 66 66 66 66 62 56 53 50 51 58 62 55 52 51 54 55 53 45 41 42 39 38
Wind_Direction
348 355 2 1 1 358 355 358 0 3 7 3 5 7 7 13 9 1 351 345 342 343 343 343 344 345 345 344 343 335 329 330 328 324 318 326 334 327 321 319 314 313 314
345 347 352 351 346 347 347 351 355 1 1 0 2 2 8 9 11 0 352 348 342 340 340 342 343 344 344 342 341 337 332 329 328 324 319 308 308 321 328 325 326 323 320
339 341 336 334 341 332 334 342 350 357 354 356 358 1 6 3 360 353 348 345 344 341 342 342 344 344 342 340 339 338 335 331 329 328 319 309 303 304 314 320 324 322 319
351 345 334 328 324 320 327 335 348 353 350 350 350 346 347 347 351 353 351 344 341 339 341 339 340 338 337 338 337 336 334 333 326 324 320 316 309 303 298 308 313 318 319
352 349 333 327 328 324 320 334 346 343 346 344 344 344 345 345 351 350 347 345 342 340 338 338 339 338 337 334 333 332 331 331 328 325 319 313 312 311 301 296 301 309 312
355 357 352 343 335 328 322 330 334 334 340 340 338 337 338 338 341 345 341 339 339 340 339 338 338 336 335 334 334 331 329 328 326 324 321 316 307 301 301 299 298 297 304
355 353 349 342 336 324 320 326 324 323 329 334 334 332 332 331 332 336 336 333 332 332 332 332 331 333 334 333 334 332 329 327 324 322 319 317 313 309 305 299 296 295 299
347 347 350 347 339 327 324 323 319 318 322 326 329 329 329 328 329 331 333 330 328 328 329 329 329 330 330 331 331 330 329 327 323 318 316 313 312 311 307 302 298 295 294
344 346 348 349 345 335 328 322 318 317 318 321 324 323 324 324 324 327 328 326 325 324 324 324 325 326 326 326 327 326 325 325 323 321 319 314 311 309 308 307 302 296 294
345 351 352 352 345 337 336 335 326 321 320 320 321 320 321 322 322 322 322 321 320 319 318 318 319 321 321 322 323 322 323 323 321 321 319 317 315 313 309 307 305 302 295
344 347 349 351 350 347 345 339 334 328 324 322 321 319 319 318 317 316 316 316 317 316 314 314 316 317 318 319 318 317 318 319 318 317 316 316 315 312 310 309 307 300 299
341 343 345 345 343 341 341 338 338 334 328 324 321 319 318 314 312 312 314 315 315 315 314 312 312 312 314 315 315 313 314 312 312 312 312 310 310 307 307 306 303 300 299
339 339 340 339 338 337 337 335 336 333 329 326 320 316 315 314 313 313 313 313 313 313 312 312 311 312 313 313 312 310 310 310 311 312 310 309 308 304 304 305 303 302 299
338 335 335 337 337 336 335 334 333 332 328 324 321 319 317 317 317 315 314 314 314 313 313 313 312 311 310 310 309 308 307 308 308 309 309 310 308 304 304 302 300 300 297
334 335 335 336 336 334 334 335 334 333 331 327 325 321 318 316 315 314 313 313 312 311 312 313 313 312 311 309 308 308 310 309 309 310 309 308 307 305 301 300 298 299 297
334 335 335 334 335 334 333 334 333 332 331 329 325 322 319 317 314 314 313 312 311 310 309 310 310 309 309 310 310 308 307 309 308 308 309 305 304 302 300 298 295 295 294
332 333 334 334 334 333 332 331 331 330 329 326 325 323 320 318 316 315 313 311 309 308 307 308 308 307 307 307 308 307 307 309 307 306 305 303 300 299 300 296 295 295 292
332 332 333 333 333 333 332 331 330 328 326 324 323 322 320 317 316 314 312 310 309 309 308 308 307 306 306 306 305 305 306 307 306 304 301 297 296 296 296 294 295 294 293
329 331 332 331 331 331 331 331 329 328 326 324 323 323 321 318 316 313 311 311 310 309 308 308 307 306 305 305 305 304 304 303 302 301 295 294 294 295 294 291 291 293 294
330 330 331 331 331 329 329 328 327 326 324 324 323 321 319 317 314 313 311 311 310 309 308 307 306 305 304 304 303 303 303 301 301 300 294 290 291 293 292 288 289 291 290
329 329 328 327 328 327 328 325 325 323 324 323 322 320 319 317 314 313 311 310 309 308 307 305 305 304 303 302 301 300 299 298 298 297 295 291 287 290 287 286 287 291 289
327 328 328 327 328 328 327 326 323 325 323 322 321 319 318 317 315 313 312 310 309 307 306 305 304 303 302 301 301 300 298 296 293 293 293 290 287 287 287 286 288 289 287
326 328 327 327 328 329 329 326 326 326 325 324 323 322 321 320 319 316 315 313 312 310 309 308 306 304 303 302 300 299 298 295 292 289 288 286 285 284 285 285 289 287 287
326 328 327 327 327 331 331 329 329 328 327 324 323 323 321 320 320 319 317 315 314 312 310 309 307 306 305 303 300 298 296 292 291 290 287 282 281 282 278 281 286 286 291
328 330 330 330 330 330 330 331 330 329 327 326 326 324 323 321 319 318 317 316 315 313 312 310 308 307 305 304 303 299 295 293 289 286 283 279 277 277 273 275 279 280 284
331 331 331 331 330 331 331 331 332 331 329 327 327 326 324 322 320 318 316 316 314 313 311 309 306 305 302 300 299 298 293 286 283 284 282 277 271 271 272 272 275 278 280